RH
50 45 48 43 38 32 33 33 35 31 27 36 34 30 33 38 55 64 61 52 52 57 53 51 51 55 61 67 79 84 89 95 90 92 97 98 98 96 94 90 78 73 75 77
50 53 41 37 31 33 34 34 37 27 23 33 35 30 31 33 43 47 50 45 46 51 48 49 50 56 62 72 83 84 84 91 88 89 96 93 95 91 87 83 76 76 74 73
48 39 36 36 31 31 33 40 36 31 26 22 32 30 29 27 29 43 40 37 37 42 46 49 57 62 63 80 88 86 87 87 87 89 90 87 82 84 84 85 84 76 73 67
44 37 39 39 38 34 35 29 28 27 34 34 28 37 36 27 26 39 46 45 43 41 46 48 60 64 69 87 86 86 87 88 85 88 86 78 72 76 82 83 79 76 70 65
40 43 41 43 36 33 33 34 32 33 38 41 38 37 35 32 29 28 41 47 44 46 47 53 68 62 67 90 93 92 90 84 75 83 76 73 78 79 83 83 78 75 68 67
38 42 39 34 29 30 30 35 41 52 47 50 41 40 40 34 24 24 31 40 49 49 52 51 72 72 81 92 93 94 87 80 79 83 72 75 74 80 81 84 78 79 80 71
39 39 38 33 35 32 32 40 60 65 75 60 45 46 39 32 30 29 34 40 47 51 65 77 90 86 93 93 94 92 84 85 86 84 73 77 75 75 74 74 82 76 70 67
48 48 35 36 40 47 47 41 65 55 78 63 48 55 41 29 28 27 35 37 52 60 64 74 82 89 88 91 92 89 86 87 78 74 75 73 68 72 74 64 61 64 64 62
49 52 44 38 36 35 41 45 40 68 82 84 60 37 32 33 40 46 53 48 67 76 74 73 78 85 89 90 93 92 88 73 78 83 71 59 65 58 60 61 65 62 60 54
46 58 46 39 36 33 33 30 45 58 62 72 47 40 48 42 43 52 55 55 68 71 75 79 80 86 87 84 84 80 75 71 75 65 63 64 64 64 66 68 64 58 58 57
51 44 47 48 40 35 40 39 40 43 62 64 73 44 30 38 42 50 54 56 67 70 69 70 73 76 75 77 73 72 64 67 62 55 69 71 76 75 62 64 62 61 58 55
48 60 63 42 36 38 40 41 43 68 45 67 79 50 33 32 36 49 55 56 65 62 62 60 65 68 70 69 68 67 66 71 64 56 59 63 60 51 56 57 54 58 54 58
47 60 70 49 40 44 39 34 40 55 65 59 73 55 28 26 27 32 42 54 57 62 63 57 60 63 63 64 65 66 69 64 56 57 52 52 51 51 57 59 58 60 59 59
47 49 54 59 41 42 49 45 47 44 74 60 60 44 31 28 27 26 32 37 58 59 56 53 51 55 57 60 62 67 68 59 65 56 50 54 57 54 56 56 58 59 61 59
42 47 40 37 37 39 39 36 41 37 43 51 40 42 30 30 30 30 29 32 44 49 51 55 57 60 68 72 72 74 71 68 64 59 55 66 63 60 61 64 64 66 62 56
48 48 50 52 47 41 45 37 39 37 38 41 37 42 36 33 34 33 31 32 36 38 51 60 58 64 70 74 75 78 78 73 68 66 71 71 64 55 59 61 62 62 59 57
55 65 72 68 53 49 64 45 37 37 40 36 44 38 40 42 38 36 41 40 41 42 43 53 67 68 73 75 78 83 70 66 64 59 61 59 58 61 64 57 58 55 54 53
67 72 82 82 69 70 48 35 33 41 39 34 34 38 44 47 54 49 44 46 44 46 54 62 67 70 72 65 67 65 62 60 59 60 60 58 60 60 63 66 63 69 61 63
59 79 86 75 78 57 41 28 32 42 49 44 44 45 42 49 56 56 55 59 63 60 57 57 56 56 57 58 56 54 55 54 56 59 61 63 64 67 70 82 82 71 70 67
65 79 79 93 73 69 52 36 34 40 68 46 50 56 54 55 81 74 61 60 63 60 60 64 63 64 65 63 60 62 64 65 71 73 70 70 75 82 81 76 78 76 74 70
87 89 82 97 84 69 49 35 38 46 52 51 53 54 55 66 71 65 66 68 65 65 66 63 61 60 62 60 60 62 67 70 64 65 72 83 78 75 72 76 74 71 71 74
68 88 93 96 91 66 48 40 45 55 60 58 59 65 78 71 62 65 68 69 68 70 67 62 64 61 57 52 52 56 61 60 64 74 69 69 68 64 61 73 75 74 80 86
71 66 78 74 76 59 59 54 60 61 66 73 76 75 72 67 70 74 78 79 78 74 66 50 49 53 54 54 56 66 67 61 68 70 72 73 72 71 70 76 79 84 86 92
63 67 76 67 72 73 75 72 70 68 68 66 67 65 64 72 73 75 74 72 70 61 60 58 59 62 66 62 61 64 65 67 69 73 75 77 79 76 78 80 84 90 94 93
67 56 63 90 82 72 73 71 66 65 67 69 67 68 72 75 76 73 73 70 68 69 68 66 69 71 69 65 65 64 65 68 69 74 76 78 81 82 85 86 90 90 88 89
61 59 74 86 72 78 82 75 67 70 72 71 74 78 74 72 78 82 89 89 85 80 74 74 75 69 67 67 70 71 72 74 78 79 82 86 88 90 88 88 82 81 84 83
Wind_Speed
3 6 3 4 4 4 4 1 4 7 8 7 9 7 9 10 9 9 10 10 14 18 17 18 18 17 14 12 13 14 13 10 10 6 4 3 4 2 2 3 5 6 5 6
4 2 6 5 7 5 3 7 10 9 6 7 6 7 6 9 11 17 15 13 14 12 15 15 16 15 16 14 13 13 12 12 9 6 3 4 4 3 2 3 4 4 6 6
6 6 1 3 5 4 6 3 8 9 2 1 6 6 4 5 5 7 12 18 16 19 20 16 17 17 15 14 15 14 14 12 9 6 4 3 4 4 3 1 2 4 7 7
5 3 4 4 3 4 6 11 16 6 5 2 3 5 4 6 8 11 9 10 14 14 16 17 18 17 17 14 13 14 13 12 9 8 6 7 7 7 4 4 4 5 7 7
8 3 3 1 6 1 8 1 6 3 3 3 3 4 7 5 6 10 13 15 15 17 19 18 20 23 20 15 14 12 12 12 12 9 9 10 7 5 3 3 7 6 5 4
4 1 4 8 5 2 4 4 6 5 2 1 1 2 5 5 16 13 6 12 11 12 14 15 9 14 13 11 12 12 13 13 11 12 10 12 12 8 6 5 6 4 4 4
2 4 2 1 5 4 3 5 3 6 5 6 5 4 10 6 8 10 10 9 11 11 11 9 12 14 13 16 15 13 16 13 11 10 9 9 10 10 12 9 5 6 4 3
6 3 3 3 3 3 1 5 6 4 3 5 3 5 7 8 9 7 1 7 8 11 13 13 14 13 15 15 14 13 13 8 7 7 8 7 7 5 4 5 6 5 4 3
5 4 4 3 3 2 2 4 5 7 3 4 4 6 5 6 6 5 5 6 7 8 10 14 11 11 12 12 12 12 10 7 8 7 5 8 8 9 8 7 6 5 6 7
8 3 3 4 3 6 7 3 2 3 3 3 5 4 5 1 3 2 4 7 7 7 8 7 9 11 8 9 8 9 10 10 10 9 9 9 8 8 8 7 7 7 7 7
6 5 5 3 7 9 1 2 1 4 5 5 1 7 6 8 8 8 8 8 10 10 12 12 9 9 10 8 9 8 11 13 13 12 9 11 8 8 9 7 6 7 7 6
8 6 5 9 6 5 1 4 5 6 4 1 5 7 4 8 8 8 9 7 7 10 12 13 14 14 13 13 11 12 13 13 11 12 12 12 12 11 8 7 7 6 6 6
8 1 3 7 7 2 6 6 4 4 4 6 7 7 3 3 4 8 10 10 10 9 8 9 9 14 16 15 14 13 11 11 12 11 11 9 9 8 8 8 7 7 6 5
8 5 8 9 8 4 4 2 1 5 4 5 6 5 7 7 7 6 6 7 8 9 11 11 10 13 13 12 10 9 8 10 11 11 12 12 11 10 8 7 7 7 7 7
5 6 5 5 4 2 3 5 3 5 5 6 10 9 9 3 3 4 7 3 4 3 3 5 4 5 6 6 7 8 10 9 11 12 11 7 6 7 5 5 6 7 6 5
2 3 2 1 3 2 2 4 4 5 3 5 5 2 6 5 5 8 6 8 8 6 4 3 6 9 9 10 9 7 7 7 7 9 8 6 8 9 8 7 6 4 4 1
6 6 4 4 3 3 6 8 7 5 3 5 5 6 2 8 8 5 6 9 8 7 7 5 4 6 7 8 9 8 9 10 11 11 9 9 7 8 7 8 7 5 4 5
6 6 3 3 3 2 9 4 5 10 6 7 9 5 6 9 5 8 6 6 7 7 8 10 8 9 8 10 13 14 12 12 12 11 10 10 10 11 9 6 1 3 4 5
5 6 4 5 4 5 6 5 6 7 1 1 7 5 6 6 6 8 7 10 8 10 9 9 10 12 13 13 13 15 13 13 13 12 11 9 11 7 3 5 7 6 4 5
7 5 6 3 5 8 8 3 5 6 2 5 7 5 4 4 4 1 6 9 12 12 10 11 12 14 15 12 13 16 13 13 12 10 8 6 4 4 5 3 5 5 4 5
4 4 6 2 3 8 8 6 3 7 8 6 7 7 5 5 3 10 10 13 12 11 13 12 14 15 12 12 14 14 11 10 7 6 4 3 3 4 3 4 3 4 5 5
8 7 4 3 4 7 6 4 8 7 4 7 6 6 10 11 13 13 12 12 11 12 12 12 13 12 9 10 11 9 8 6 4 1 1 2 1 3 3 5 4 4 4 5
1 8 8 9 8 4 3 5 5 7 8 4 9 6 13 12 11 12 12 11 10 10 8 8 9 8 7 6 6 7 3 5 5 4 2 3 5 5 5 3 5 4 4 4
2 4 4 6 5 5 7 8 7 7 10 7 7 9 13 16 12 13 11 9 7 7 8 6 8 8 6 6 5 4 4 3 2 3 5 5 4 5 5 4 4 4 4 4
6 7 6 5 1 9 8 6 11 13 12 14 13 12 13 15 12 11 9 9 9 8 7 6 6 6 5 5 5 4 4 4 5 5 5 6 4 6 5 5 5 5 6 7
4 8 6 7 12 6 4 4 8 13 11 11 16 13 11 12 13 12 9 6 6 6 5 6 6 6 6 7 7 7 8 6 6 5 5 5 5 5 5 6 8 10 14 15
Wind_Direction
16 61 304 296 231 216 284 278 353 265 212 164 204 200 202 170 172 193 194 179 170 176 177 175 172 174 171 170 156 157 149 151 143 142 131 121 150 146 130 167 154 171 142 122
36 159 229 236 295 48 350 20 295 298 239 160 205 225 239 176 190 195 191 181 175 164 164 173 173 172 174 165 168 159 162 163 164 155 146 150 146 170 158 155 171 166 126 124
169 222 179 333 289 5 289 196 268 239 158 206 132 320 203 231 135 176 198 185 178 173 170 168 174 175 172 170 174 168 172 170 168 166 147 92 72 63 73 114 184 194 158 166
222 244 104 351 313 174 217 237 255 293 44 245 134 230 278 195 201 183 196 197 182 181 176 165 171 173 176 175 175 174 170 170 179 181 150 156 168 166 191 170 176 171 166 165
249 198 147 133 254 215 248 292 261 331 300 92 303 96 261 166 196 204 203 196 191 181 174 169 175 179 182 165 171 171 166 178 192 189 172 174 183 176 147 148 163 169 175 126
213 339 163 196 269 200 320 355 42 37 40 67 353 152 276 203 211 209 179 186 194 187 186 183 159 165 164 163 167 168 177 184 197 196 178 183 183 168 151 165 175 162 97 90
339 264 264 152 16 337 112 67 332 357 6 219 305 101 240 233 252 216 189 176 175 180 177 157 150 161 164 171 177 178 185 195 187 188 178 183 177 172 176 173 153 124 107 101
175 311 178 147 188 218 260 164 157 217 222 272 260 224 259 274 223 215 118 146 147 167 169 169 160 165 179 175 179 180 187 185 163 159 164 153 146 124 113 115 119 116 117 94
143 273 312 175 127 357 343 193 201 105 13 43 263 291 337 339 36 57 113 111 145 141 167 172 162 175 174 173 184 177 174 160 141 132 120 111 113 118 116 104 104 110 114 132
195 114 271 310 191 219 176 231 88 8 150 243 291 305 238 175 278 8 160 161 159 148 155 161 166 167 176 175 168 170 157 150 146 142 131 127 128 122 124 129 139 136 132 118
139 121 245 295 210 204 37 273 140 125 138 167 179 271 227 205 202 202 215 190 173 176 170 174 176 174 171 158 150 151 148 152 153 148 144 140 145 147 135 133 137 136 130 126
198 135 183 220 293 66 147 261 150 122 238 104 145 270 264 218 205 189 216 216 208 190 179 177 174 169 168 171 165 167 169 159 164 155 152 149 146 139 135 133 139 135 160 178
182 147 70 352 357 349 215 199 186 111 85 191 135 259 310 319 264 205 197 211 207 204 186 180 173 183 183 181 182 175 159 155 152 140 139 139 137 134 136 139 161 173 149 147
110 137 159 183 199 191 197 240 177 144 122 182 216 243 279 274 237 251 238 220 208 199 196 195 190 198 195 195 186 142 143 143 145 150 149 151 150 153 151 144 125 140 147 150
119 163 160 181 194 219 226 243 181 175 201 158 233 200 245 222 144 262 189 144 98 115 201 220 224 195 176 142 127 130 153 147 147 156 154 143 82 60 68 85 122 124 146 167
51 210 136 201 75 84 197 276 295 211 171 240 267 339 306 90 79 51 52 98 87 70 72 63 178 164 160 162 163 133 132 133 122 108 99 105 121 114 111 101 97 83 64 6
134 130 95 244 348 25 346 222 220 252 205 167 164 190 292 51 50 42 60 72 73 57 49 55 171 161 162 161 148 124 112 109 109 111 114 107 95 84 70 61 57 50 359 301
131 108 99 191 36 14 241 271 147 106 39 81 88 96 109 111 98 64 42 86 68 56 40 36 36 56 57 84 92 104 104 97 99 96 95 84 79 68 62 68 336 312 256 259
142 121 102 135 185 285 297 155 177 129 43 345 114 115 146 162 80 44 41 63 64 71 65 64 67 69 73 76 89 91 85 89 88 83 80 77 85 97 154 234 247 266 321 287
67 54 116 131 139 205 240 228 116 112 142 182 126 118 98 111 86 218 91 77 77 68 67 76 71 77 73 72 82 83 83 82 78 77 84 97 138 214 229 295 307 269 263 257
49 27 145 136 187 287 246 226 95 113 222 157 136 143 132 107 154 124 98 78 76 77 74 73 73 73 74 77 80 80 79 86 118 134 133 194 253 274 268 273 265 269 274 294
158 138 178 88 71 276 197 109 159 191 111 138 114 118 104 103 96 96 89 86 81 81 77 73 78 82 92 102 107 118 122 155 135 113 80 51 350 288 285 289 287 303 305 293
164 177 176 172 211 273 335 134 93 128 125 118 114 110 112 109 100 98 94 88 86 92 99 103 100 92 64 52 58 70 77 87 73 61 353 301 308 309 301 291 296 297 288 267
266 154 140 106 358 66 61 67 74 88 103 88 84 103 116 115 110 102 102 107 102 86 75 76 86 82 75 74 69 75 69 87 51 334 319 312 302 293 292 282 270 264 257 265
192 140 126 70 31 82 38 70 111 98 94 91 79 88 105 110 108 112 104 89 85 86 81 81 84 79 73 65 59 31 9 356 332 316 298 288 276 276 279 267 251 254 249 226
185 169 150 197 186 133 121 115 130 108 105 102 105 90 82 101 104 100 94 96 95 85 78 65 57 59 33 32 26 15 5 358 346 324 311 290 286 282 277 276 284 247 249 251